This is the latest recevied weather packets stored in our database for station/object KF4ERV-4. If no packets are shown the sender has not sent any weather packets the latest 10 day(s).
| Time | Temp. | Humidity | Pressure | Rain* | Wind** | Luminosity | Snow |
|---|---|---|---|---|---|---|---|
| 1778126554 | 11.11° C | 51% | 1016 hPa | 0 mm | - | - | - |
| 1778126491 | 11.11° C | 52% | 1016 hPa | 0 mm | - | - | - |
| 1778126397 | 11.11° C | 52% | 1016 hPa | 0 mm | - | - | - |
| 1778126330 | 11.11° C | 51% | 1016 hPa | 0 mm | - | - | - |
| 1778125876 | 11.11° C | 51% | 1016 hPa | 0 mm | - | - | - |
| 1778125733 | 11.11° C | 48% | 1016.4 hPa | 0 mm | - | - | - |
| 1778125615 | 11.11° C | 48% | 1016.4 hPa | 0 mm | - | - | - |
| 1778125530 | 11.11° C | 48% | 1016.4 hPa | 0 mm | - | - | - |
| 1778125496 | 11.11° C | 48% | 1016.4 hPa | 0 mm | - | - | - |
| 1778125198 | 11.11° C | 47% | 1016.7 hPa | 0 mm | - | - | - |
| 1778125099 | 11.11° C | 48% | 1016 hPa | 0 mm | - | - | - |
| 1778125036 | 11.11° C | 45% | 1016.7 hPa | 0 mm | - | - | - |
| 1778124900 | 11.11° C | 45% | 1016.7 hPa | 0 mm | - | - | - |
| 1778124454 | 11.11° C | 41% | 1016.9 hPa | 0 mm | - | - | - |
| 1778124296 | 11.11° C | 41% | 1016.9 hPa | 0 mm | - | - | - |
| 1778124167 | 11.11° C | 44% | 1016.4 hPa | 0 mm | - | - | - |
| 1778123876 | 11.11° C | 48% | 1016 hPa | 0 mm | - | - | - |
| 1778123667 | 11.11° C | 57% | 1016 hPa | 0 mm | - | - | - |
| 1778123586 | 11.11° C | 48% | 1016 hPa | 0 mm | - | - | - |
| 1778123306 | 11.11° C | 57% | 1016 hPa | 0 mm | - | - | - |
| 1778123097 | 11.11° C | 57% | 1016 hPa | 0 mm | - | - | - |
| 1778123050 | 11.67° C | 59% | 1016 hPa | 0 mm | - | - | - |
| 1778123006 | 11.67° C | 59% | 1016 hPa | 0 mm | - | - | - |
| 1778122909 | 11.67° C | 61% | 1016 hPa | 0 mm | - | - | - |
| 1778122888 | 11.67° C | 67% | 1016 hPa | 0 mm | - | - | - |
* Rain latest hour (hover to see other rain measurements)
** Current wind speed in m/s (hover to see current wind gust speed)